This is the latest recevied weather packets stored in our database for station/object JA6YCL-13. If no packets are shown the sender has not sent any weather packets the latest 10 day(s).
| Time | Temp. | Humidity | Pressure | Rain* | Wind** | Luminosity | Snow |
|---|---|---|---|---|---|---|---|
| 1777489096 | 12.22° C | 93% | 1017.6 hPa | 3.3 mm | - | - | - |
| 1777488281 | 12.22° C | 93% | 1017.7 hPa | 0.76 mm | - | - | - |
| 1777487386 | 12.22° C | 92% | 1017.6 hPa | 2.54 mm | - | - | - |
| 1777486601 | 12.22° C | 94% | 1017.3 hPa | 2.29 mm | - | - | - |
| 1777485787 | 12.78° C | 94% | 1017.2 hPa | 1.02 mm | - | - | - |
| 1777484975 | 12.22° C | 94% | 1017.6 hPa | 1.52 mm | - | - | - |
| 1777484076 | 12.78° C | 93% | 1017.9 hPa | 1.78 mm | - | - | - |
| 1777483186 | 12.78° C | 93% | 1018 hPa | 0.76 mm | - | - | - |
| 1777482386 | 12.78° C | 92% | 1018 hPa | 1.02 mm | - | - | - |
| 1777481596 | 12.78° C | 93% | 1018.2 hPa | 1.27 mm | - | - | - |
| 1777480846 | 12.78° C | 93% | 1018.2 hPa | 1.78 mm | - | - | - |
| 1777479948 | 12.78° C | 93% | 1018.4 hPa | 1.02 mm | - | - | - |
| 1777479176 | 12.78° C | 92% | 1018.5 hPa | 1.02 mm | - | - | - |
| 1777478304 | 12.78° C | 91% | 1018.6 hPa | 1.52 mm | - | - | - |
| 1777477496 | 12.78° C | 90% | 1018.6 hPa | 1.27 mm | - | - | - |
| 1777476736 | 13.33° C | 89% | 1018.8 hPa | 0 mm | - | - | - |
| 1777475991 | 13.33° C | 89% | 1018.9 hPa | 0 mm | - | - | - |
| 1777475164 | 13.33° C | 89% | 1018.7 hPa | 0 mm | - | - | - |
| 1777474316 | 13.33° C | 90% | 1018.8 hPa | 0 mm | - | - | - |
| 1777473586 | 13.33° C | 90% | 1019.1 hPa | 0 mm | - | - | - |
| 1777472861 | 13.33° C | 90% | 1019 hPa | 0 mm | - | - | - |
| 1777472058 | 13.33° C | 88% | 1018.9 hPa | 0 mm | - | - | - |
| 1777471181 | 13.33° C | 89% | 1018.9 hPa | 0 mm | - | - | - |
| 1777470401 | 13.89° C | 87% | 1018.9 hPa | 0 mm | - | - | - |
| 1777469516 | 13.89° C | 86% | 1018.8 hPa | 0 mm | - | - | - |
* Rain latest hour (hover to see other rain measurements)
** Current wind speed in m/s (hover to see current wind gust speed)